When you browse on this site, cookies collect data to enhance your experience and personalize the content and advertising you see.
Visit our Privacy Policy to learn more. By continuing to use the site, you agree to this use of cookies and data.
  • In Deutschland
  • Länderverzeichnis
  • Für 7 Tage
  • Wassertemperatur
  • Wetterkarte
  • Widgets
  • user-avatar
    Anmelden

    Stündliche Wetter Berlin

    Heute, 19 August, Montag

    Zeit Temperatur Niederschläge Wind Luftdruck Luftfeuchtigkeit
    00:00 +19°C° 0 mm 2 m/S 754 mmHg 90%
    01:00 +18°C° 0 mm 2 m/S 754 mmHg 91%
    02:00 +18°C° 0 mm 2 m/S 755 mmHg 92%
    03:00 +17°C° 0 mm 2 m/S 755 mmHg 92%
    04:00 +17°C° 0 mm 2 m/S 755 mmHg 92%
    05:00 +17°C° 0 mm 2 m/S 756 mmHg 90%
    06:00 +18°C° 0 mm 2 m/S 756 mmHg 88%
    07:00 +18°C° 0 mm 2 m/S 756 mmHg 85%
    08:00 +19°C° 0 mm 2 m/S 757 mmHg 79%
    09:00 +20°C° 0 mm 3 m/S 757 mmHg 72%
    10:00 +21°C° 0 mm 3 m/S 757 mmHg 65%
    11:00 +22°C° 0 mm 3 m/S 757 mmHg 58%
    12:00 +23°C° 0 mm 4 m/S 758 mmHg 50%
    13:00 +25°C° 0 mm 4 m/S 758 mmHg 43%
    14:00 +25°C° 0 mm 4 m/S 758 mmHg 41%
    15:00 +25°C° 0 mm 4 m/S 758 mmHg 40%
    16:00 +25°C° 0 mm 4 m/S 758 mmHg 38%
    17:00 +24°C° 0 mm 3 m/S 758 mmHg 44%
    18:00 +22°C° 0 mm 3 m/S 759 mmHg 51%
    19:00 +20°C° 0 mm 2 m/S 759 mmHg 57%
    20:00 +20°C° 0 mm 2 m/S 759 mmHg 59%
    21:00 +20°C° 0 mm 1 m/S 760 mmHg 61%
    22:00 +19°C° 0 mm 1 m/S 760 mmHg 63%
    23:00 +19°C° 0 mm 1 m/S 760 mmHg 64%

    Morgen, 20 August, Dienstag

    Zeit Temperatur Niederschläge Wind Luftdruck Luftfeuchtigkeit
    00:00 +18°C° 0 mm 1 m/S 761 mmHg 65%
    01:00 +18°C° 0 mm 1 m/S 761 mmHg 66%
    02:00 +16°C° 0 mm 1 m/S 761 mmHg 67%
    03:00 +16°C° 0 mm 1 m/S 761 mmHg 68%
    04:00 +16°C° 0 mm 1 m/S 761 mmHg 69%
    05:00 +18°C° 0 mm 1 m/S 761 mmHg 67%
    06:00 +19°C° 0 mm 1 m/S 762 mmHg 65%
    07:00 +18°C° 0 mm 2 m/S 762 mmHg 63%
    08:00 +20°C° 0 mm 2 m/S 762 mmHg 57%
    09:00 +23°C° 0 mm 2 m/S 762 mmHg 51%
    10:00 +24°C° 0 mm 2 m/S 762 mmHg 46%
    11:00 +25°C° 0 mm 2 m/S 762 mmHg 44%
    12:00 +25°C° 0 mm 2 m/S 762 mmHg 42%
    13:00 +26°C° 0 mm 2 m/S 762 mmHg 40%
    14:00 +26°C° 0 mm 2 m/S 761 mmHg 41%
    15:00 +26°C° 0 mm 1 m/S 761 mmHg 42%
    16:00 +26°C° 0 mm 1 m/S 761 mmHg 43%
    17:00 +24°C° 0 mm 2 m/S 762 mmHg 49%
    18:00 +23°C° 0 mm 2 m/S 762 mmHg 54%
    19:00 +21°C° 0 mm 2 m/S 762 mmHg 60%
    20:00 +20°C° 0 mm 2 m/S 762 mmHg 64%
    21:00 +19°C° 0 mm 2 m/S 763 mmHg 67%
    22:00 +19°C° 0 mm 1 m/S 763 mmHg 70%
    23:00 +19°C° 0 mm 1 m/S 763 mmHg 71%

    übermorgen, 21 August, Mittwoch

    Zeit Temperatur Niederschläge Wind Luftdruck Luftfeuchtigkeit
    00:00 +19°C° 0 mm 1 m/S 764 mmHg 72%
    01:00 +19°C° 0 mm 1 m/S 764 mmHg 73%
    02:00 +17°C° 0 mm 2 m/S 764 mmHg 75%
    03:00 +16°C° 0 mm 2 m/S 764 mmHg 77%
    04:00 +16°C° 0 mm 2 m/S 764 mmHg 80%
    05:00 +16°C° 0 mm 2 m/S 765 mmHg 79%
    06:00 +16°C° 0 mm 2 m/S 765 mmHg 79%
    07:00 +16°C° 0 mm 2 m/S 765 mmHg 78%
    08:00 +18°C° 0 mm 2 m/S 765 mmHg 71%
    09:00 +19°C° 0 mm 2 m/S 766 mmHg 64%
    10:00 +21°C° 0 mm 2 m/S 766 mmHg 56%
    11:00 +21°C° 0 mm 2 m/S 766 mmHg 51%
    12:00 +23°C° 0 mm 2 m/S 765 mmHg 46%
    13:00 +24°C° 0 mm 2 m/S 765 mmHg 41%
    14:00 +24°C° 0 mm 2 m/S 765 mmHg 41%
    15:00 +24°C° 0 mm 2 m/S 765 mmHg 40%
    16:00 +25°C° 0 mm 2 m/S 765 mmHg 39%
    17:00 +23°C° 0 mm 2 m/S 765 mmHg 44%
    18:00 +21°C° 0 mm 2 m/S 765 mmHg 49%
    19:00 +21°C° 0 mm 1 m/S 765 mmHg 54%
    20:00 +20°C° 0 mm 1 m/S 765 mmHg 56%
    21:00 +19°C° 0 mm 1 m/S 765 mmHg 58%
    22:00 +18°C° 0 mm 1 m/S 766 mmHg 60%
    23:00 +17°C° 0 mm 2 m/S 766 mmHg 64%

    22 August, Donnerstag

    Zeit Temperatur Niederschläge Wind Luftdruck Luftfeuchtigkeit
    00:00 +16°C° 0 mm 2 m/S 766 mmHg 68%
    01:00 +16°C° 0 mm 2 m/S 766 mmHg 72%
    02:00 +16°C° 0 mm 2 m/S 765 mmHg 74%
    03:00 +15°C° 0 mm 1 m/S 765 mmHg 76%
    04:00 +15°C° 0 mm 1 m/S 765 mmHg 78%
    05:00 +16°C° 0 mm 1 m/S 765 mmHg 75%
    06:00 +17°C° 0 mm 2 m/S 765 mmHg 71%
    07:00 +18°C° 0 mm 2 m/S 765 mmHg 68%
    08:00 +19°C° 0 mm 2 m/S 765 mmHg 63%
    09:00 +20°C° 0 mm 2 m/S 765 mmHg 57%
    10:00 +23°C° 0 mm 2 m/S 765 mmHg 52%
    11:00 +24°C° 0 mm 2 m/S 765 mmHg 50%
    12:00 +25°C° 0 mm 2 m/S 765 mmHg 47%
    13:00 +26°C° 0 mm 1 m/S 765 mmHg 44%
    14:00 +25°C° 0 mm 1 m/S 764 mmHg 46%
    15:00 +25°C° 0 mm 1 m/S 764 mmHg 47%
    16:00 +25°C° 0 mm 1 m/S 764 mmHg 48%
    17:00 +24°C° 0 mm 1 m/S 764 mmHg 53%
    18:00 +23°C° 0 mm 1 m/S 764 mmHg 58%
    19:00 +22°C° 0 mm 1 m/S 764 mmHg 62%
    20:00 +21°C° 0 mm 1 m/S 765 mmHg 66%
    21:00 +20°C° 0 mm 1 m/S 765 mmHg 69%
    22:00 +20°C° 0 mm 1 m/S 765 mmHg 72%
    23:00 +19°C° 0 mm 1 m/S 766 mmHg 75%

    23 August, Freitag

    Zeit Temperatur Niederschläge Wind Luftdruck Luftfeuchtigkeit
    00:00 +19°C° 0 mm 1 m/S 766 mmHg 77%
    01:00 +18°C° 0 mm 1 m/S 766 mmHg 80%
    02:00 +18°C° 0 mm 1 m/S 766 mmHg 82%
    03:00 +18°C° 0 mm 1 m/S 765 mmHg 84%
    04:00 +16°C° 0 mm 1 m/S 765 mmHg 86%
    05:00 +18°C° 0 mm 1 m/S 766 mmHg 83%
    06:00 +19°C° 0 mm 1 m/S 766 mmHg 79%
    07:00 +20°C° 0 mm 1 m/S 766 mmHg 76%
    08:00 +22°C° 0 mm 1 m/S 766 mmHg 68%
    09:00 +23°C° 0 mm 2 m/S 766 mmHg 61%
    10:00 +25°C° 0 mm 2 m/S 766 mmHg 53%
    11:00 +26°C° 0 mm 2 m/S 766 mmHg 50%
    12:00 +27°C° 0 mm 2 m/S 765 mmHg 47%
    13:00 +28°C° 0 mm 3 m/S 765 mmHg 44%
    14:00 +27°C° 0 mm 3 m/S 765 mmHg 44%
    15:00 +27°C° 0 mm 3 m/S 765 mmHg 45%
    16:00 +27°C° 0 mm 3 m/S 764 mmHg 45%
    17:00 +26°C° 0 mm 3 m/S 764 mmHg 50%
    18:00 +25°C° 0 mm 3 m/S 764 mmHg 54%
    19:00 +23°C° 0 mm 2 m/S 764 mmHg 59%
    20:00 +23°C° 0 mm 2 m/S 764 mmHg 60%
    21:00 +22°C° 0 mm 3 m/S 764 mmHg 61%
    22:00 +21°C° 0 mm 3 m/S 764 mmHg 61%
    23:00 +21°C° 0 mm 3 m/S 764 mmHg 63%

    24 August, Samstag

    Zeit Temperatur Niederschläge Wind Luftdruck Luftfeuchtigkeit
    00:00 +20°C° 0 mm 3 m/S 764 mmHg 65%
    01:00 +19°C° 0 mm 3 m/S 764 mmHg 67%
    02:00 +19°C° 0 mm 3 m/S 763 mmHg 68%
    03:00 +18°C° 0 mm 3 m/S 763 mmHg 68%
    04:00 +18°C° 0 mm 3 m/S 763 mmHg 69%
    05:00 +19°C° 0 mm 4 m/S 763 mmHg 68%
    06:00 +19°C° 0 mm 4 m/S 762 mmHg 67%
    07:00 +20°C° 0 mm 5 m/S 762 mmHg 65%
    08:00 +21°C° 0 mm 5 m/S 762 mmHg 62%
    09:00 +23°C° 0 mm 5 m/S 762 mmHg 59%
    10:00 +25°C° 0 mm 5 m/S 762 mmHg 56%
    11:00 +27°C° 0 mm 5 m/S 761 mmHg 54%
    12:00 +28°C° 0 mm 5 m/S 761 mmHg 52%
    13:00 +29°C° 0 mm 5 m/S 760 mmHg 50%
    14:00 +29°C° 0 mm 5 m/S 760 mmHg 50%
    15:00 +30°C° 0 mm 5 m/S 759 mmHg 50%
    16:00 +30°C° 0 mm 5 m/S 759 mmHg 50%
    17:00 +29°C° 0.2 mm 4 m/S 758 mmHg 55%
    18:00 +28°C° 0.2 mm 4 m/S 758 mmHg 61%
    19:00 +26°C° 0.2 mm 3 m/S 758 mmHg 67%
    20:00 +25°C° 1.4 mm 3 m/S 758 mmHg 72%
    21:00 +25°C° 1.4 mm 3 m/S 758 mmHg 76%
    22:00 +24°C° 1.4 mm 3 m/S 757 mmHg 81%
    23:00 +22°C° 0.7 mm 3 m/S 757 mmHg 83%
    Mehr zeigen